Theta_e
322 321 318 317 316 316 316 316 316 317 316 313 313 313 313 314 315 315 315 313 312 313 314 313 314 317 315 315 316 315 312 311 307 314 316 320 322 324 324 325 325 326 326
320 318 316 316 316 316 316 316 317 315 315 313 313 312 313 314 315 315 314 314 312 312 313 314 313 312 315 316 314 315 313 314 310 309 314 315 320 324 324 324 323 323 324
317 316 316 316 316 316 316 316 317 316 314 313 313 312 312 314 314 315 314 314 314 312 313 313 314 314 315 314 316 315 316 314 312 310 311 316 320 321 321 323 324 324 324
315 315 315 316 316 316 316 316 316 316 314 313 313 312 313 314 314 314 315 315 315 314 314 314 314 315 316 317 317 318 318 314 312 310 311 312 318 321 321 318 321 323 320
314 314 315 316 317 316 316 317 316 315 314 314 313 312 313 313 312 313 313 313 314 314 315 313 313 316 316 318 314 318 319 316 313 311 311 316 316 318 317 322 319 321 321
314 314 316 316 315 316 318 317 316 316 315 314 313 313 312 312 307 306 308 311 314 312 310 312 317 318 318 315 316 316 317 318 317 316 317 316 319 319 320 317 315 314 312
315 315 315 315 315 316 317 316 315 316 316 315 315 314 313 315 306 303 304 312 314 312 310 311 318 319 317 319 312 312 313 311 312 319 318 319 318 319 319 319 316 315 314
315 315 315 315 315 316 317 316 316 317 316 315 314 314 314 314 305 302 302 314 315 313 314 313 319 321 320 315 318 318 320 319 318 316 318 320 321 317 316 320 316 318 317
314 314 315 315 315 316 316 317 318 317 316 316 315 315 314 315 304 300 304 315 314 315 318 320 320 319 304 300 315 318 319 320 313 308 308 306 304 304 310 317 314 313 310
309 310 311 312 315 311 316 318 319 317 315 315 314 316 312 313 305 299 303 316 314 315 317 317 308 311 301 298 316 319 318 321 320 319 315 313 312 316 307 316 317 313 309
314 313 314 317 312 316 312 312 317 317 316 316 315 316 315 313 313 300 300 314 316 315 315 315 318 303 301 299 299 322 317 318 317 320 321 321 319 314 317 320 319 318 314
318 317 316 316 314 315 315 315 313 316 315 315 315 314 314 315 305 302 298 297 307 315 316 318 316 301 300 299 302 299 298 303 318 316 317 319 319 320 319 319 323 320 321
313 315 316 316 315 315 315 313 311 314 311 314 312 312 312 313 314 300 299 298 299 310 317 312 301 299 299 301 300 300 298 317 320 319 316 317 317 321 318 316 319 322 320
303 304 306 309 310 315 315 314 312 309 311 311 312 312 312 313 313 313 312 313 302 307 309 313 309 303 300 305 308 311 317 318 321 321 319 319 316 318 316 320 316 315 312
294 296 300 301 303 305 308 309 312 314 309 308 309 310 311 312 313 307 307 312 315 310 310 316 316 316 315 315 316 317 318 320 320 320 318 317 315 315 315 318 316 313 310
294 295 296 297 297 299 299 301 300 299 297 296 295 297 304 301 298 296 295 295 297 294 308 313 314 315 313 313 314 315 317 314 319 319 318 318 317 317 316 317 314 313 314
293 294 291 292 293 293 294 295 293 297 296 296 295 296 295 294 294 294 294 292 292 293 310 312 313 314 313 312 313 315 315 317 321 320 317 317 316 316 314 316 317 316 316
291 291 290 290 290 290 291 291 291 291 292 294 294 293 293 292 291 293 292 292 299 296 308 311 313 314 314 313 313 314 316 315 319 319 318 318 317 316 314 314 315 314 314
289 289 289 289 290 289 290 290 290 290 290 291 292 292 293 291 291 292 291 298 303 307 308 308 312 313 314 315 316 315 317 316 317 319 318 318 317 317 316 316 315 305 308
289 288 288 289 289 289 289 289 289 289 289 289 290 290 291 290 291 292 293 295 300 303 305 309 310 312 313 314 315 316 315 315 314 318 319 321 319 317 316 316 317 316 317
289 289 287 288 288 288 288 288 288 288 288 288 289 290 285 289 290 292 292 292 292 295 298 303 307 310 312 313 314 314 314 315 316 316 318 319 321 318 319 318 317 318 318
288 288 288 288 288 288 288 288 288 288 288 288 289 290 286 290 291 291 292 292 293 294 294 294 295 304 309 311 313 314 314 314 315 317 317 318 320 320 319 319 319 318 318
288 288 288 288 288 287 287 288 288 288 288 288 288 289 290 290 290 290 291 292 293 295 296 294 294 296 301 311 314 314 313 315 316 317 317 317 317 318 319 318 318 318 317
288 288 287 287 288 287 287 287 287 286 287 288 289 288 288 289 290 290 290 291 291 292 295 294 293 294 299 302 310 313 316 317 319 318 318 317 317 313 317 317 318 318 318
288 288 288 287 287 287 287 287 287 287 288 288 288 288 288 289 289 290 290 291 292 292 293 294 294 294 294 296 299 306 308 294 311 309 319 318 317 318 316 316 316 318 317
288 288 288 288 287 287 287 287 287 287 287 287 288 288 288 288 290 291 291 291 291 291 292 294 294 295 295 296 299 297 293 292 301 295 317 318 317 317 317 316 316 316 317
Wind_Speed
6 5 4 3 3 4 5 6 7 6 6 7 8 9 10 10 10 9 8 7 10 10 8 6 8 8 4 4 5 5 6 7 7 10 6 7 9 7 6 4 4 5 5
6 5 4 4 5 6 7 8 7 7 6 7 8 8 9 9 8 8 8 7 7 10 11 9 9 7 8 7 7 8 8 8 5 11 6 7 7 6 5 5 4 4 4
6 6 6 6 6 8 8 8 6 6 7 8 8 9 9 9 9 8 7 9 10 9 10 10 10 9 10 9 9 9 9 7 8 6 6 6 6 4 4 5 5 4 5
6 6 7 7 8 8 8 8 7 6 8 8 8 9 9 9 8 9 9 10 10 10 10 10 10 10 10 10 9 10 9 7 7 7 6 7 7 4 5 5 5 5 5
7 8 9 8 8 9 9 8 7 7 8 8 9 10 10 8 7 9 10 11 11 11 10 9 10 10 15 15 6 7 7 7 6 6 7 7 6 6 6 4 5 4 5
9 10 9 9 9 10 9 9 8 9 9 9 10 10 11 7 6 9 9 10 11 9 9 7 8 8 2 1 10 12 9 7 9 7 7 7 7 6 5 6 7 7 9
10 11 11 10 10 10 9 9 11 10 8 9 11 10 10 10 5 8 10 8 10 9 8 8 6 3 5 4 3 6 9 9 9 7 8 7 6 6 7 6 5 6 7
11 11 12 11 12 11 10 11 12 10 9 9 10 10 10 9 4 8 8 7 8 9 9 8 7 6 1 5 7 7 5 4 5 5 9 8 6 3 4 5 4 5 1
12 10 11 12 13 12 12 12 11 9 10 9 9 11 11 11 2 5 7 6 5 7 5 4 5 5 3 4 8 7 5 2 5 4 4 4 6 7 7 5 4 5 2
6 9 9 9 11 10 12 13 11 10 11 9 10 9 10 11 4 4 6 4 4 4 5 5 4 5 3 6 5 4 3 2 1 2 1 2 3 2 6 8 4 6 3
12 10 12 10 9 12 11 7 11 10 10 10 11 10 10 9 8 7 7 6 3 4 4 4 2 2 1 4 7 2 3 4 2 5 3 1 2 1 2 5 6 5 5
13 12 11 12 10 7 11 12 9 10 10 10 10 10 8 8 9 8 10 11 4 5 6 4 3 3 4 3 7 2 3 4 3 5 6 4 3 3 3 3 3 3 1
14 14 13 12 13 11 10 11 9 8 8 10 8 9 9 7 6 11 9 10 10 8 6 3 4 8 8 8 9 6 6 6 5 6 4 2 1 3 5 5 4 7 7
14 14 13 14 14 12 9 7 7 6 8 9 10 10 9 8 7 6 6 8 11 9 8 7 3 5 6 7 6 7 6 6 5 3 1 2 4 3 3 4 5 6 5
13 12 13 12 13 13 11 10 10 9 8 10 10 11 12 11 10 8 7 7 8 4 4 6 7 7 7 7 7 6 5 5 5 4 4 6 6 5 3 3 6 6 3
13 11 10 11 8 10 9 11 7 9 11 13 13 9 10 15 17 10 11 12 5 11 6 9 9 8 8 7 7 7 6 5 5 5 5 5 4 5 6 6 6 4 7
12 12 11 11 11 11 11 11 11 10 9 9 10 13 13 14 19 20 16 6 5 10 9 10 9 9 8 8 8 7 6 5 6 7 7 6 5 6 6 7 9 10 8
13 11 11 10 10 11 11 12 11 12 13 13 9 11 12 19 20 19 12 8 6 8 11 12 11 10 9 9 8 8 7 5 7 8 8 8 7 8 7 6 7 7 7
10 10 11 9 9 11 10 11 11 11 11 12 12 12 12 16 16 12 4 7 10 12 12 13 13 12 11 10 9 9 8 7 8 9 9 9 9 8 8 8 7 8 8
10 11 9 10 9 10 9 10 10 11 11 10 11 12 13 17 14 10 8 8 9 10 13 13 12 12 13 13 12 10 10 9 8 9 10 9 10 10 10 10 9 10 10
9 10 10 10 10 10 10 10 10 10 11 11 12 12 8 13 13 13 10 8 8 10 12 13 14 13 13 13 13 13 13 12 11 11 11 11 11 11 10 11 10 10 10
9 10 10 10 10 10 10 11 11 11 11 13 13 14 10 12 13 13 14 11 10 9 9 11 12 15 14 14 14 15 15 15 14 12 12 12 12 11 12 11 11 10 9
10 11 11 10 10 11 11 11 11 12 13 13 14 14 15 14 15 15 15 16 14 13 11 8 10 13 16 15 13 15 15 15 14 14 14 13 12 13 12 12 13 12 11
11 11 11 11 10 11 11 11 12 13 13 14 14 14 15 16 17 19 17 16 16 16 14 13 12 17 14 15 15 15 14 15 14 16 20 15 14 13 13 13 14 15 13
11 11 12 11 11 11 12 12 13 14 14 14 14 15 16 17 18 19 19 18 16 16 18 17 13 16 19 24 22 27 19 11 18 15 16 19 18 18 16 13 14 14 14
12 12 11 11 11 11 11 12 13 14 14 13 15 15 16 16 17 18 18 20 18 18 20 16 19 24 22 20 22 22 18 11 16 14 18 16 17 16 15 17 20 13 15
Wind_Direction
202 180 196 241 260 276 290 296 299 298 306 308 318 325 329 327 331 326 326 329 319 312 299 293 304 308 285 251 228 238 248 244 258 277 296 295 292 282 282 264 258 245 217
199 212 232 251 264 268 278 285 293 282 299 298 311 317 325 321 318 325 326 327 315 310 309 299 293 296 281 271 266 262 257 249 239 265 278 275 267 285 280 270 262 241 240
208 228 247 256 257 268 278 287 273 280 292 300 307 311 317 319 313 309 312 319 311 308 301 297 290 285 273 265 260 263 257 239 235 246 263 266 276 273 261 247 257 251 250
230 244 262 262 265 274 282 280 267 282 287 292 296 301 302 308 310 312 314 311 308 304 301 293 283 274 269 266 258 259 258 241 227 232 242 253 255 260 266 269 254 231 240
240 249 259 267 271 280 279 266 265 276 278 284 289 292 296 296 299 321 314 307 307 307 305 300 289 283 274 256 250 257 247 233 226 226 232 246 249 239 246 262 256 261 235
246 254 260 265 275 277 280 266 263 274 279 284 285 287 293 295 298 284 297 306 303 303 297 297 289 272 289 338 232 242 277 262 248 248 250 247 256 250 254 261 265 255 255
253 260 262 265 268 272 277 267 262 270 283 283 286 286 290 297 277 281 299 299 305 300 289 286 279 256 268 300 207 235 233 236 263 284 264 261 272 260 267 246 247 251 239
258 260 262 262 262 266 267 261 262 264 270 278 287 286 288 296 269 280 300 293 308 303 294 273 268 262 329 315 300 284 286 285 254 251 258 267 262 265 231 269 289 252 119
259 282 291 294 283 275 268 265 263 264 266 268 275 285 286 296 216 284 303 303 326 308 307 291 279 280 76 314 290 278 264 261 188 239 269 287 271 252 246 239 213 206 165
264 263 264 250 257 254 265 273 274 264 265 268 273 278 279 285 266 249 281 291 308 301 306 284 209 304 326 313 275 272 266 67 114 191 251 276 282 303 201 225 207 195 128
297 287 279 290 257 270 266 251 263 260 266 265 272 278 279 274 275 224 228 275 252 280 291 309 322 245 287 307 298 282 22 338 210 261 264 229 170 46 228 214 218 181 161
334 324 319 307 294 306 287 279 260 265 261 262 274 282 280 271 237 222 210 237 259 255 271 280 297 282 281 290 277 351 301 261 279 272 269 270 219 175 154 112 223 147 200
355 356 355 347 351 340 310 298 288 270 258 270 265 277 284 281 263 212 220 221 238 249 255 274 308 275 276 264 236 257 283 244 259 273 296 279 337 129 112 111 103 89 92
1 358 355 348 349 350 340 330 315 312 301 300 291 282 282 279 267 252 231 218 228 240 220 232 242 287 288 293 286 230 236 250 252 268 56 174 137 146 181 162 122 117 126
355 354 356 351 352 343 347 347 339 344 342 317 305 313 303 291 288 256 245 241 236 229 257 239 234 232 236 237 241 245 238 221 221 179 164 171 169 158 166 161 134 147 127
351 353 353 338 349 336 338 328 344 332 329 322 290 277 306 306 301 283 252 237 182 147 219 247 240 234 237 239 239 240 233 222 221 188 175 173 175 156 149 149 144 179 167
354 356 347 347 343 343 338 337 328 337 335 345 0 0 4 340 348 326 290 269 200 153 231 241 241 236 234 233 234 238 249 221 192 196 185 166 179 153 174 163 160 169 172
357 7 349 349 349 346 344 343 340 338 337 337 352 353 15 1 352 340 314 201 198 237 252 237 236 235 233 232 231 234 233 215 202 195 193 188 180 171 177 165 164 161 152
355 357 348 345 348 341 343 344 343 342 341 338 337 338 353 354 331 338 268 301 295 260 237 241 238 233 231 231 230 228 231 216 223 197 196 193 189 188 185 185 176 182 175
349 350 332 334 337 342 342 340 341 340 336 336 337 339 341 340 336 332 327 313 305 297 285 269 249 241 231 226 226 225 219 210 207 215 202 192 193 193 187 188 184 183 197
331 332 331 328 333 335 333 334 334 325 325 323 321 326 327 320 317 319 313 300 293 298 312 302 277 261 250 237 223 220 220 219 206 213 208 201 195 196 197 190 189 197 185
324 323 322 326 326 324 332 317 320 320 318 316 316 317 306 306 315 311 307 302 289 269 271 285 287 299 264 250 236 221 218 217 215 209 210 203 196 202 196 198 196 194 190
322 322 316 316 317 316 315 321 320 320 318 316 311 311 318 317 313 307 301 299 294 289 266 254 280 279 289 275 247 241 220 213 212 209 209 207 200 202 205 200 199 192 192
315 311 314 311 311 313 309 317 312 312 315 311 314 315 309 307 307 306 297 289 285 278 271 269 262 256 264 277 277 241 238 221 206 209 210 210 206 193 200 200 202 196 191
313 311 311 313 311 310 309 310 315 316 316 315 319 314 312 309 304 299 295 290 281 269 265 265 253 247 254 260 262 280 244 220 216 200 203 211 205 205 204 200 201 200 198
309 308 307 305 306 308 308 311 311 314 315 316 319 317 311 306 300 299 294 285 274 267 260 254 253 246 242 251 253 260 290 223 215 209 203 203 205 204 201 201 203 206 193